Wind_Speed
25 25 25 25 25 24 24 24 23 21 20 19 18 18 17 16 15 14 14 15 14 14 14 14 15 15 15 15 15 15 15 15 16 16 17 17 17 17 17 18 18 18 19 19
27 27 26 27 26 26 26 26 25 24 23 21 21 20 19 18 17 17 16 16 16 16 16 16 16 17 18 18 17 17 17 17 17 18 18 18 18 18 18 19 20 20 21 21
29 29 29 28 27 27 27 27 26 26 24 23 23 22 21 21 20 20 19 19 19 19 18 18 18 19 19 20 20 19 20 20 19 19 19 19 19 20 20 21 21 22 23 23
32 30 31 28 29 29 29 29 28 27 26 25 25 24 24 23 23 22 21 21 21 21 20 20 20 21 21 22 22 22 22 21 21 21 21 22 22 22 22 22 23 24 24 25
33 33 32 30 30 31 31 30 29 28 27 27 26 25 24 24 24 23 23 23 23 23 22 21 22 22 23 23 23 24 24 24 23 24 24 23 23 24 24 24 25 26 26 25
35 35 34 32 31 32 33 33 31 30 29 28 28 28 25 25 27 26 25 24 24 24 24 24 23 24 24 24 25 25 26 26 26 26 25 25 25 26 26 26 27 27 27 27
35 36 35 34 33 32 33 33 32 31 30 29 29 29 28 27 27 27 27 26 26 26 27 26 25 25 25 25 26 26 26 26 26 26 27 27 27 27 28 28 28 28 28 28
36 37 36 34 34 34 34 34 34 33 31 31 31 30 29 28 28 29 29 29 29 29 28 28 27 26 26 26 26 26 26 26 26 26 27 27 28 28 28 29 30 30 30 31
36 36 34 34 35 35 35 34 34 35 34 33 31 30 30 29 29 29 29 29 28 28 28 28 28 27 27 26 26 26 27 27 27 27 27 28 28 29 30 31 31 31 32 33
34 34 34 34 34 36 37 36 35 34 34 33 33 32 30 29 29 29 30 29 29 29 28 28 28 28 28 28 28 28 28 28 29 29 29 29 31 31 32 33 33 33 33 34
33 33 33 32 33 34 35 37 37 36 35 34 34 33 32 31 31 31 31 31 31 30 30 29 29 29 30 30 30 30 30 30 29 30 31 32 33 33 34 35 36 36 36 35
33 33 33 32 33 34 35 35 36 37 36 35 34 33 33 33 33 32 32 31 30 30 31 31 31 31 32 32 32 31 31 31 31 31 32 32 33 34 35 36 36 37 37 37
34 34 34 33 33 33 33 34 34 34 35 34 34 34 34 34 33 33 33 32 32 32 31 32 32 33 33 34 33 33 33 33 33 33 33 33 33 34 35 36 36 37 37 37
34 35 35 34 34 33 33 33 33 34 34 34 34 33 33 34 34 34 34 33 33 33 32 33 33 33 33 34 34 33 33 33 34 35 35 36 36 35 35 36 36 37 38 38
34 34 34 34 34 33 34 33 33 33 34 34 34 34 34 36 36 35 34 34 34 33 33 33 34 34 35 35 34 33 34 35 36 36 37 38 37 37 37 37 37 37 38 39
33 33 33 33 33 33 33 33 33 34 33 33 35 35 36 36 36 36 36 35 34 33 34 35 36 37 36 36 36 36 36 37 38 38 38 38 38 37 37 37 38 38 39 40
33 33 32 32 31 32 32 32 32 32 33 34 34 34 34 35 35 35 37 37 36 35 35 37 37 38 38 38 38 37 37 38 38 39 39 39 39 38 38 38 38 39 39 40
29 30 31 32 32 32 32 32 32 33 33 34 34 34 34 34 34 35 35 36 37 37 37 38 37 37 38 38 38 36 36 37 38 39 39 39 38 37 37 38 38 38 39 39
26 27 27 28 30 31 31 31 32 32 33 33 34 34 34 34 34 35 35 35 36 37 38 38 38 37 37 38 37 37 37 38 38 38 38 38 37 37 37 37 37 38 38 38
25 25 26 25 26 27 28 29 30 31 31 31 32 33 33 33 34 34 35 35 36 36 37 38 38 38 39 39 39 39 39 38 38 37 36 36 37 37 36 36 36 36 36 37
24 24 25 25 25 26 26 27 28 29 29 30 32 33 33 33 33 33 33 33 33 34 35 36 37 37 38 38 38 38 38 38 37 36 36 35 35 35 35 36 36 37 37 37
23 23 24 24 25 25 25 25 26 27 28 29 30 31 32 33 33 33 33 33 33 33 33 34 35 35 36 36 36 36 36 36 36 36 35 34 34 34 34 35 35 35 35 35
20 21 22 23 23 23 23 24 24 25 26 27 28 29 29 30 31 32 32 32 33 33 33 33 34 34 34 35 36 35 35 34 34 34 34 34 34 34 34 34 34 34 34 35
19 20 20 21 22 22 22 23 24 24 24 25 26 27 28 28 29 30 30 30 31 31 31 32 32 32 32 32 33 32 32 32 33 34 34 33 33 33 33 34 34 33 33 34
17 18 19 20 21 21 22 22 23 23 24 25 26 26 27 28 28 28 28 28 28 29 29 29 30 30 30 30 30 30 31 31 32 33 33 33 32 31 32 33 33 34 35 36
17 17 18 18 19 19 20 21 22 23 23 24 25 25 26 26 25 25 25 26 26 27 27 27 27 28 28 29 29 29 30 30 31 31 31 32 32 32 32 33 34 34 35 36
17 18 18 19 19 19 19 19 20 21 22 22 23 23 24 24 25 25 25 25 26 26 26 25 26 27 27 28 28 29 29 29 29 29 30 31 31 32 32 33 34 34 35 36
Wind_Direction
237 237 239 241 244 247 250 253 255 256 259 262 264 266 270 271 273 276 279 285 288 290 291 292 293 292 293 294 293 291 290 290 288 287 288 286 282 282 285 287 287 288 289 290
240 240 241 242 244 247 250 253 255 256 259 263 264 267 270 272 275 276 275 279 284 286 284 286 292 294 294 295 294 292 291 290 288 286 285 284 284 284 285 286 286 287 288 289
243 243 246 244 244 248 250 252 255 257 260 261 262 265 268 273 277 279 276 277 281 285 288 287 289 291 293 293 292 291 290 288 286 285 283 284 284 284 285 285 286 287 288 287
245 246 248 250 249 249 251 253 255 257 259 259 261 263 267 271 274 278 281 280 282 285 286 287 288 290 291 291 291 291 289 287 285 283 283 284 283 283 282 283 285 285 286 286
246 248 251 251 252 251 252 253 256 257 258 259 260 263 266 268 271 276 279 282 283 284 287 286 287 289 291 292 292 293 290 287 285 282 281 283 282 280 280 282 283 285 285 287
248 249 251 252 253 254 254 255 255 256 256 257 260 263 266 268 270 272 275 278 280 281 283 284 286 287 289 292 292 291 289 286 283 282 282 283 282 283 283 283 284 286 286 286
249 250 251 251 252 255 256 256 257 259 259 258 261 263 265 266 268 270 272 274 276 279 280 283 285 285 286 289 290 289 289 287 284 283 284 285 285 286 287 287 287 287 286 286
251 251 251 251 252 254 257 258 258 259 261 261 261 261 263 263 265 267 269 270 274 277 278 279 281 284 286 287 287 287 288 287 285 285 286 286 286 286 286 287 289 288 288 287
251 252 253 253 254 255 257 259 260 260 260 260 258 260 260 261 263 265 268 271 274 275 276 277 279 281 283 283 284 285 286 286 285 285 286 287 287 286 287 288 289 287 287 288
253 252 252 253 255 256 256 257 259 259 260 258 258 258 258 260 262 264 266 270 272 273 275 276 278 279 280 281 282 284 285 285 285 284 285 287 288 287 286 287 287 288 289 289
253 254 254 253 256 257 257 257 257 258 258 257 257 258 259 260 263 264 265 267 269 272 274 277 278 279 280 280 281 283 284 285 284 284 285 287 288 288 287 288 288 288 288 289
253 255 256 256 257 258 258 258 258 258 258 258 259 261 260 259 261 263 265 265 268 271 273 276 277 278 280 280 280 281 281 284 284 284 285 286 288 288 289 289 290 291 290 290
254 254 255 255 256 257 258 258 257 257 257 259 259 260 261 260 261 263 263 264 267 269 271 274 276 278 279 280 279 279 281 283 284 286 286 286 288 288 289 289 290 290 291 291
253 254 253 253 254 254 256 257 256 257 258 259 259 260 260 260 262 264 264 265 266 266 269 272 275 277 278 279 279 280 282 283 284 285 285 286 287 288 289 288 288 289 291 291
252 253 254 253 254 255 255 256 257 257 258 258 260 261 261 262 262 263 266 266 266 266 268 269 274 276 278 279 280 281 282 283 284 284 285 286 287 288 288 288 288 289 290 290
251 252 254 254 255 256 256 256 257 257 259 260 261 263 265 265 266 265 265 266 267 269 270 270 272 275 278 279 281 281 282 283 284 284 285 285 285 286 288 288 288 288 289 290
251 251 253 254 254 255 256 258 258 259 260 261 263 265 266 268 269 269 267 268 269 270 272 272 272 274 277 279 281 281 283 285 285 285 286 286 286 286 287 288 289 289 289 290
253 254 253 253 254 256 257 259 260 259 259 260 262 265 267 268 270 271 272 271 269 270 272 273 274 275 276 278 281 282 283 284 285 285 285 286 287 287 287 288 289 289 290 291
253 255 256 255 255 256 257 258 259 259 260 261 262 264 266 268 270 270 270 270 270 271 272 274 275 277 278 278 279 281 283 284 285 286 286 286 286 287 288 288 289 289 290 290
252 254 255 256 256 256 256 258 259 259 260 261 262 264 267 270 271 271 269 270 271 272 273 274 275 276 278 278 280 282 282 283 284 285 285 286 286 288 288 288 289 290 289 290
251 255 257 257 256 257 258 259 261 263 263 263 264 266 267 269 271 271 272 273 273 273 273 274 275 277 277 277 279 281 282 282 284 285 287 288 287 287 288 288 289 289 290 291
253 254 256 258 258 257 259 262 263 264 265 267 267 268 269 269 269 269 271 272 273 273 274 276 276 277 278 277 279 281 282 284 286 288 289 288 289 290 289 290 292 291 291 291
252 254 256 258 260 261 262 265 267 268 269 270 271 271 272 272 271 271 272 272 272 274 275 276 277 279 280 280 282 284 285 287 288 288 289 290 289 289 289 290 291 292 293 293
256 258 260 261 261 263 264 266 268 270 272 273 274 274 275 275 274 273 272 272 272 274 276 277 278 280 283 286 286 286 286 287 287 288 290 290 290 290 290 292 291 292 293 294
258 259 262 264 264 265 265 266 269 271 272 274 274 275 275 275 274 274 274 274 275 276 278 279 280 281 283 285 286 286 287 286 286 288 290 290 291 292 293 293 293 293 294 295
264 265 267 268 268 268 269 271 273 275 276 276 276 277 276 276 275 275 277 277 278 278 278 280 282 282 283 284 285 287 287 287 287 289 290 289 290 291 292 293 293 294 295 296
268 269 269 270 270 270 272 275 278 280 279 278 278 280 279 277 277 277 278 279 279 280 282 284 285 285 284 285 285 287 288 289 289 290 290 291 291 291 292 293 294 296 297 299
Height
5878 5880 5882 5884 5886 5888 5889 5891 5892 5894 5896 5898 5898 5899 5899 5899 5899 5898 5898 5897 5896 5895 5894 5893 5892 5891 5891 5890 5889 5888 5887 5886 5885 5884 5883 5883 5882 5881 5880 5879 5878 5877 5876 5875
5873 5875 5876 5879 5881 5883 5884 5886 5887 5889 5891 5893 5893 5894 5894 5894 5894 5894 5894 5893 5892 5891 5890 5889 5888 5887 5887 5886 5885 5884 5883 5882 5881 5880 5878 5878 5877 5876 5875 5874 5873 5872 5871 5869
5867 5869 5871 5873 5876 5877 5879 5880 5882 5883 5886 5887 5888 5889 5889 5889 5889 5889 5888 5888 5887 5886 5885 5884 5884 5883 5882 5881 5880 5879 5878 5877 5876 5875 5874 5873 5872 5871 5870 5869 5868 5866 5865 5863
5860 5863 5864 5870 5870 5871 5872 5874 5875 5877 5879 5880 5882 5882 5883 5884 5884 5883 5883 5882 5882 5881 5880 5879 5879 5878 5877 5876 5875 5874 5872 5871 5870 5869 5868 5867 5866 5865 5863 5862 5861 5860 5858 5857
5852 5854 5857 5861 5862 5864 5865 5867 5869 5871 5872 5874 5875 5875 5877 5877 5877 5877 5876 5876 5875 5875 5874 5873 5872 5872 5871 5870 5868 5867 5866 5865 5864 5863 5861 5860 5859 5857 5856 5855 5854 5852 5851 5850
5844 5846 5849 5854 5855 5856 5858 5860 5862 5864 5865 5866 5867 5869 5870 5870 5870 5870 5870 5869 5869 5868 5868 5867 5866 5865 5864 5863 5862 5861 5859 5858 5857 5855 5854 5853 5852 5850 5849 5848 5847 5846 5845 5843
5836 5838 5841 5844 5846 5848 5851 5853 5854 5855 5857 5858 5860 5861 5862 5862 5862 5862 5863 5863 5862 5862 5861 5860 5859 5859 5858 5856 5855 5853 5852 5850 5849 5848 5847 5846 5845 5843 5842 5841 5840 5839 5837 5836
5828 5830 5834 5836 5838 5840 5842 5844 5845 5847 5848 5850 5852 5852 5853 5854 5854 5855 5855 5855 5855 5854 5853 5853 5852 5852 5851 5850 5848 5846 5845 5843 5842 5841 5840 5839 5837 5836 5835 5834 5832 5831 5830 5828
5820 5823 5825 5827 5829 5831 5833 5835 5836 5838 5840 5841 5842 5844 5845 5846 5846 5847 5847 5847 5847 5847 5846 5845 5844 5844 5843 5842 5840 5839 5837 5836 5835 5834 5832 5831 5830 5829 5827 5826 5824 5823 5821 5820
5811 5813 5816 5818 5820 5822 5824 5825 5827 5828 5830 5832 5833 5834 5835 5837 5838 5838 5839 5839 5839 5838 5838 5837 5836 5835 5835 5834 5832 5831 5830 5829 5827 5826 5825 5823 5822 5820 5819 5817 5816 5814 5813 5811
5802 5805 5807 5809 5811 5813 5814 5816 5817 5819 5820 5822 5823 5825 5826 5828 5829 5830 5830 5830 5830 5830 5829 5829 5828 5827 5826 5825 5824 5823 5822 5820 5819 5818 5817 5815 5814 5812 5810 5809 5807 5805 5803 5801
5794 5797 5799 5801 5802 5803 5805 5806 5807 5809 5810 5811 5813 5815 5817 5818 5820 5821 5821 5821 5821 5821 5821 5820 5819 5818 5817 5816 5815 5814 5813 5812 5811 5810 5808 5807 5805 5803 5801 5799 5797 5795 5793 5792
5785 5787 5789 5791 5793 5794 5795 5796 5798 5799 5800 5802 5803 5805 5807 5809 5810 5811 5812 5812 5812 5812 5812 5811 5810 5809 5809 5808 5806 5805 5804 5803 5802 5801 5800 5798 5796 5795 5793 5791 5788 5785 5783 5781
5776 5778 5780 5782 5784 5785 5786 5787 5789 5790 5792 5793 5795 5796 5798 5799 5801 5802 5802 5803 5803 5803 5802 5802 5801 5800 5799 5798 5797 5796 5795 5794 5793 5792 5790 5789 5787 5785 5783 5781 5779 5776 5774 5771
5767 5768 5771 5773 5775 5776 5778 5779 5780 5782 5783 5784 5786 5787 5788 5790 5791 5792 5793 5793 5793 5792 5792 5792 5791 5790 5790 5789 5787 5787 5786 5784 5783 5782 5780 5779 5777 5775 5773 5771 5769 5766 5764 5761
5757 5759 5761 5763 5766 5767 5768 5770 5772 5773 5774 5775 5776 5777 5778 5779 5780 5781 5782 5782 5782 5782 5782 5782 5781 5781 5780 5779 5778 5777 5776 5774 5772 5771 5769 5767 5766 5764 5762 5760 5758 5755 5753 5750
5749 5751 5753 5755 5757 5758 5760 5761 5762 5763 5764 5765 5766 5767 5768 5769 5770 5770 5771 5771 5771 5772 5772 5771 5771 5770 5769 5768 5767 5766 5765 5764 5762 5760 5758 5756 5754 5753 5751 5749 5746 5744 5742 5739
5739 5742 5744 5746 5748 5749 5751 5752 5753 5754 5755 5756 5757 5758 5759 5759 5760 5760 5760 5761 5761 5762 5761 5761 5760 5760 5759 5758 5757 5755 5754 5753 5751 5749 5747 5745 5743 5741 5739 5737 5735 5733 5730 5727
5732 5734 5735 5737 5739 5740 5742 5743 5744 5745 5746 5747 5747 5748 5749 5749 5750 5750 5750 5751 5751 5751 5751 5750 5749 5749 5748 5747 5746 5745 5743 5741 5739 5737 5735 5733 5732 5730 5728 5726 5723 5721 5719 5716
5725 5727 5728 5729 5731 5732 5733 5734 5734 5735 5736 5737 5738 5739 5739 5739 5740 5740 5740 5740 5741 5740 5740 5739 5738 5738 5737 5736 5735 5734 5732 5730 5728 5726 5724 5722 5721 5719 5717 5715 5713 5710 5708 5705
5719 5720 5721 5722 5723 5725 5726 5726 5727 5728 5728 5729 5729 5730 5730 5730 5730 5730 5730 5730 5730 5729 5729 5729 5728 5727 5726 5725 5724 5722 5721 5719 5717 5715 5713 5710 5709 5708 5706 5704 5702 5699 5697 5695
5713 5714 5715 5716 5716 5717 5718 5719 5720 5720 5721 5721 5721 5721 5720 5720 5720 5720 5720 5720 5720 5719 5719 5718 5718 5716 5715 5714 5713 5711 5710 5708 5706 5705 5703 5701 5699 5697 5696 5694 5691 5689 5687 5684
5707 5708 5709 5709 5710 5711 5711 5712 5712 5713 5713 5713 5713 5712 5711 5711 5711 5711 5711 5710 5710 5709 5709 5709 5707 5706 5705 5704 5703 5701 5700 5698 5696 5695 5693 5691 5689 5687 5685 5683 5681 5679 5676 5673
5702 5702 5703 5704 5704 5705 5705 5705 5705 5705 5705 5705 5704 5704 5703 5702 5702 5701 5700 5700 5700 5699 5699 5698 5697 5696 5695 5694 5692 5691 5689 5688 5686 5685 5683 5681 5679 5677 5675 5673 5671 5668 5665 5663
5697 5697 5698 5698 5698 5698 5699 5699 5699 5698 5698 5697 5696 5695 5694 5694 5693 5692 5692 5691 5690 5690 5690 5689 5688 5687 5686 5684 5683 5681 5680 5678 5677 5675 5673 5671 5669 5667 5665 5662 5660 5658 5655 5652
5692 5692 5693 5693 5693 5692 5692 5692 5692 5691 5691 5690 5689 5687 5686 5685 5684 5684 5683 5682 5682 5681 5681 5680 5679 5678 5676 5675 5674 5672 5670 5668 5667 5665 5664 5662 5659 5657 5655 5653 5650 5647 5644 5641
5687 5687 5688 5688 5687 5687 5687 5686 5685 5684 5683 5682 5681 5680 5678 5677 5677 5676 5675 5675 5674 5673 5672 5671 5670 5669 5668 5666 5665 5663 5662 5660 5658 5656 5654 5652 5650 5647 5645 5642 5640 5637 5634 5630